Dades meteomassalio
Diari Summary for Juny 21, 2017 Units:  English    Metric   Both
« Previous Day
Next Day »
Diari Semanal Mensual Anual Personalitzat
  Maxima: Minima: Mijana:
Temperatura: TemperatureC °F 18.9 °F 28.3 °F
Rosada: DewpointC °F 12.3 °F 14.7 °F
Humitat: Humidity % 24 % 46 %
Velocitat del vent: WindSpeedKMH mph 0.0 mph 4.6 mph
Racha vent: WindSpeedGustKMH mph - -
Vent:- - SSE
Pressio: PressurehPa in 1012.4 in -
Pluja: 0.0 in    
Historical Graphs
 
 
Tabular Data for Juny 21, 2017
Time Temperature Dew Point Pressure Wind Wind Speed Wind Gust Humidity Rainfall Rate (Hourly) solar Conditions
TemperatureC °F DewpointC °F PressurehPa in Calm     Humidity % HourlyPrecipMM in SolarRadiationWatts/m^2 W/m2 Conditions
00:04 24.9 °F 15.5 °F 1015.8 in Calm     56 % 0.0 in 0.0 W/m2 CLR
00:09 24.9 °F 15.3 °F 1015.8 in Calm     55 % 0.0 in 0.0 W/m2 CLR
00:14 25.0 °F 15.3 °F 1015.8 in Calm     55 % 0.0 in 0.0 W/m2 CLR
00:19 24.7 °F 15.0 °F 1015.8 in Calm     55 % 0.0 in 0.0 W/m2 CLR
00:24 24.3 °F 15.3 °F 1016.1 in Calm     57 % 0.0 in 0.0 W/m2 CLR
00:29 24.2 °F 15.2 °F 1016.1 in Calm     57 % 0.0 in 0.0 W/m2 CLR
00:34 24.2 °F 15.4 °F 1016.1 in Calm     58 % 0.0 in 0.0 W/m2 CLR
00:39 24.1 °F 15.3 °F 1016.1 in Calm     58 % 0.0 in 0.0 W/m2 CLR
00:44 23.9 °F 15.4 °F 1016.1 in Calm     59 % 0.0 in 0.0 W/m2 CLR
00:49 23.9 °F 15.4 °F 1015.8 in Calm     59 % 0.0 in 0.0 W/m2 CLR
00:54 23.9 °F 14.9 °F 1015.8 in Calm     57 % 0.0 in 0.0 W/m2 CLR
00:59 24.1 °F 15.1 °F 1015.8 in Calm     57 % 0.0 in 0.0 W/m2 CLR
01:04 24.2 °F 15.1 °F 1015.8 in Calm     57 % 0.0 in 0.0 W/m2 CLR
01:09 24.2 °F 15.4 °F 1015.8 in Calm     58 % 0.0 in 0.0 W/m2 CLR
01:14 24.3 °F 15.2 °F 1015.8 in Calm     57 % 0.0 in 0.0 W/m2 CLR
01:19 24.3 °F 15.5 °F 1015.8 in Calm     58 % 0.0 in 0.0 W/m2 CLR
01:24 24.2 °F 15.4 °F 1015.8 in Calm     58 % 0.0 in 0.0 W/m2 CLR
01:29 24.1 °F 15.6 °F 1015.8 in Calm     59 % 0.0 in 0.0 W/m2 CLR
01:34 24.0 °F 15.5 °F 1015.8 in Calm     59 % 0.0 in 0.0 W/m2 CLR
01:39 23.9 °F 15.7 °F 1015.5 in Calm     60 % 0.0 in 0.0 W/m2 CLR
01:44 23.9 °F 15.7 °F 1015.5 in Calm     60 % 0.0 in 0.0 W/m2 CLR
01:49 23.8 °F 15.3 °F 1015.5 in Calm     59 % 0.0 in 0.0 W/m2 CLR
01:54 23.7 °F 15.2 °F 1015.5 in Calm     59 % 0.0 in 0.0 W/m2 CLR
01:59 23.6 °F 15.4 °F 1015.1 in Calm     60 % 0.0 in 0.0 W/m2 CLR
02:04 23.5 °F 15.3 °F 1015.5 in Calm     60 % 0.0 in 0.0 W/m2 CLR
02:09 23.3 °F 15.4 °F 1015.5 in Calm     61 % 0.0 in 0.0 W/m2 CLR
02:14 23.2 °F 15.3 °F 1015.5 in Calm     61 % 0.0 in 0.0 W/m2 CLR
02:19 23.2 °F 15.2 °F 1015.5 in Calm     61 % 0.0 in 0.0 W/m2 CLR
02:24 23.0 °F 15.1 °F 1015.5 in Calm     61 % 0.0 in 0.0 W/m2 CLR
02:29 22.9 °F 15.0 °F 1015.5 in Calm     61 % 0.0 in 0.0 W/m2 CLR
02:34 22.8 °F 14.9 °F 1015.5 in Calm     61 % 0.0 in 0.0 W/m2 CLR
02:39 22.8 °F 15.1 °F 1015.5 in Calm     62 % 0.0 in 0.0 W/m2 CLR
02:45 22.7 °F 14.8 °F 1015.1 in Calm     61 % 0.0 in 0.0 W/m2 CLR
02:50 22.6 °F 14.7 °F 1015.1 in Calm     61 % 0.0 in 0.0 W/m2 CLR
02:55 22.4 °F 14.7 °F 1015.1 in Calm     62 % 0.0 in 0.0 W/m2 CLR
03:00 22.2 °F 14.8 °F 1015.1 in Calm     63 % 0.0 in 0.0 W/m2 CLR
03:05 22.1 °F 14.9 °F 1015.1 in Calm     64 % 0.0 in 0.0 W/m2 CLR
03:10 22.0 °F 14.6 °F 1015.1 in Calm     63 % 0.0 in 0.0 W/m2 CLR
03:15 21.9 °F 14.5 °F 1015.1 in Calm     63 % 0.0 in 0.0 W/m2 CLR
03:20 21.7 °F 14.6 °F 1015.1 in Calm     64 % 0.0 in 0.0 W/m2 CLR
03:25 21.6 °F 14.4 °F 1015.1 in Calm     64 % 0.0 in 0.0 W/m2 CLR
03:30 21.5 °F 14.7 °F 1015.1 in Calm     65 % 0.0 in 0.0 W/m2 CLR
03:35 21.4 °F 14.3 °F 1015.1 in Calm     64 % 0.0 in 0.0 W/m2 CLR
03:40 21.3 °F 14.5 °F 1014.8 in Calm     65 % 0.0 in 0.0 W/m2 CLR
03:45 21.1 °F 14.4 °F 1014.8 in Calm     66 % 0.0 in 0.0 W/m2 CLR
03:50 20.9 °F 14.3 °F 1014.8 in Calm     66 % 0.0 in 0.0 W/m2 CLR
03:55 20.9 °F 14.3 °F 1014.8 in Calm     66 % 0.0 in 0.0 W/m2 CLR
04:00 20.9 °F 14.3 °F 1014.8 in Calm     66 % 0.0 in 0.0 W/m2 CLR
04:05 20.8 °F 14.2 °F 1014.4 in Calm     66 % 0.0 in 0.0 W/m2 CLR
04:10 20.8 °F 14.2 °F 1014.4 in Calm     66 % 0.0 in 0.0 W/m2 CLR
04:15 20.6 °F 14.2 °F 1014.8 in Calm     67 % 0.0 in 0.0 W/m2 CLR
04:20 20.6 °F 14.3 °F 1014.8 in Calm     67 % 0.0 in 0.0 W/m2 CLR
04:25 20.6 °F 14.5 °F 1014.8 in Calm     68 % 0.0 in 0.0 W/m2 CLR
04:30 20.6 °F 14.2 °F 1014.8 in Calm     67 % 0.0 in 0.0 W/m2 CLR
04:35 20.5 °F 13.9 °F 1014.8 in Calm     66 % 0.0 in 0.0 W/m2 CLR
04:36 20.5 °F 13.9 °F 1014.8 in Calm     66 % 0.0 in 0.0 W/m2 CLR
04:41 20.4 °F 13.9 °F 1014.8 in Calm     66 % 0.0 in 0.0 W/m2 CLR
04:46 20.3 °F 13.8 °F 1014.8 in Calm     66 % 0.0 in 0.0 W/m2 CLR
04:51 20.2 °F 13.6 °F 1014.8 in Calm     66 % 0.0 in 0.0 W/m2 CLR
04:56 20.1 °F 13.5 °F 1014.8 in Calm     66 % 0.0 in 0.0 W/m2 CLR
05:01 19.9 °F 13.4 °F 1014.8 in Calm     66 % 0.0 in 0.0 W/m2 CLR
05:06 19.9 °F 13.6 °F 1014.8 in Calm     67 % 0.0 in 0.0 W/m2 CLR
05:11 19.9 °F 13.3 °F 1014.8 in Calm     66 % 0.0 in 0.0 W/m2 CLR
05:16 19.8 °F 13.3 °F 1014.8 in Calm     66 % 0.0 in 0.0 W/m2 CLR
05:21 19.7 °F 13.2 °F 1014.8 in Calm     66 % 0.0 in 0.0 W/m2 CLR
05:26 19.7 °F 13.1 °F 1015.1 in Calm     66 % 0.0 in 0.0 W/m2 CLR
05:31 19.6 °F 13.3 °F 1015.1 in Calm     67 % 0.0 in 0.0 W/m2 CLR
05:36 19.6 °F 13.1 °F 1015.1 in Calm     66 % 0.0 in 0.0 W/m2 CLR
05:41 19.5 °F 13.0 °F 1015.1 in Calm     66 % 0.0 in 0.0 W/m2 CLR
05:46 19.6 °F 13.1 °F 1015.1 in Calm     66 % 0.0 in 0.0 W/m2 CLR
05:51 19.5 °F 13.0 °F 1015.1 in Calm     66 % 0.0 in 0.0 W/m2 CLR
05:56 19.4 °F 13.1 °F 1015.1 in Calm     67 % 0.0 in 0.0 W/m2 CLR
06:01 19.3 °F 13.1 °F 1015.1 in Calm     67 % 0.0 in 0.0 W/m2 CLR
06:06 19.3 °F 13.0 °F 1015.1 in Calm     67 % 0.0 in 0.0 W/m2 CLR
06:08 19.3 °F 13.0 °F 1015.1 in Calm     67 % 0.0 in 0.0 W/m2 CLR
06:13 19.2 °F 12.9 °F 1015.1 in Calm     67 % 0.0 in 0.0 W/m2 CLR
06:18 19.1 °F 13.1 °F 1015.1 in Calm     68 % 0.0 in 0.0 W/m2 OVC
06:23 19.1 °F 13.0 °F 1015.1 in Calm     68 % 0.0 in 0.0 W/m2 OVC
06:28 19.1 °F 12.8 °F 1015.1 in Calm     67 % 0.0 in 5.0 W/m2 OVC
06:33 19.1 °F 12.8 °F 1015.1 in Calm     67 % 0.0 in 7.0 W/m2 BKN
06:38 19.1 °F 13.0 °F 1015.1 in Calm     68 % 0.0 in 11.0 W/m2 BKN
06:43 19.0 °F 12.9 °F 1015.1 in Calm     68 % 0.0 in 12.0 W/m2 BKN
06:48 18.9 °F 12.9 °F 1015.5 in Calm     68 % 0.0 in 16.0 W/m2 BKN
06:53 18.9 °F 12.9 °F 1015.5 in Calm     68 % 0.0 in 19.0 W/m2 BKN
06:58 18.9 °F 12.9 °F 1015.5 in Calm     68 % 0.0 in 21.0 W/m2 BKN
07:03 19.0 °F 13.2 °F 1015.5 in Calm     69 % 0.0 in 26.0 W/m2 BKN
07:08 19.0 °F 12.9 °F 1015.5 in Calm     68 % 0.0 in 39.0 W/m2 BKN
07:13 19.1 °F 13.2 °F 1015.5 in Calm     69 % 0.0 in 47.0 W/m2 SCT
07:18 19.3 °F 13.2 °F 1015.5 in Calm     68 % 0.0 in 56.0 W/m2 SCT
07:23 19.5 °F 13.4 °F 1015.5 in Calm     68 % 0.0 in 67.0 W/m2 FEW
07:28 19.7 °F 13.4 °F 1015.5 in Calm     67 % 0.0 in 81.0 W/m2 FEW
07:33 20.1 °F 13.7 °F 1015.5 in Calm     67 % 0.0 in 93.0 W/m2 FEW
07:38 20.3 °F 13.5 °F 1015.5 in Calm     65 % 0.0 in 105.0 W/m2 CLR
07:43 20.6 °F 13.7 °F 1015.5 in Calm     65 % 0.0 in 120.0 W/m2 CLR
07:48 20.9 °F 13.9 °F 1015.5 in Calm     64 % 0.0 in 141.0 W/m2 CLR
07:53 21.3 °F 14.0 °F 1015.5 in Calm     63 % 0.0 in 156.0 W/m2 CLR
07:58 21.7 °F 14.4 °F 1015.5 in Calm     63 % 0.0 in 172.0 W/m2 CLR
08:03 22.2 °F 14.1 °F 1015.5 in Calm     60 % 0.0 in 190.0 W/m2 CLR
08:08 22.7 °F 14.8 °F 1015.5 in Calm     61 % 0.0 in 204.0 W/m2 CLR
08:13 23.2 °F 15.0 °F 1015.5 in Calm     60 % 0.0 in 220.0 W/m2 CLR
08:18 23.7 °F 15.2 °F 1015.5 in Calm     59 % 0.0 in 236.0 W/m2 CLR
08:23 23.9 °F 15.2 °F 1015.5 in Calm     58 % 0.0 in 248.0 W/m2 CLR
08:28 24.2 °F 15.2 °F 1015.5 in Calm     57 % 0.0 in 260.0 W/m2 CLR
08:33 24.3 °F 14.7 °F 1015.5 in Calm     55 % 0.0 in 276.0 W/m2 CLR
08:38 24.3 °F 14.7 °F 1015.5 in Calm     55 % 0.0 in 292.0 W/m2 CLR
08:43 24.5 °F 14.9 °F 1015.5 in Calm     55 % 0.0 in 309.0 W/m2 CLR
08:48 24.8 °F 14.9 °F 1015.5 in Calm     54 % 0.0 in 330.0 W/m2 CLR
08:53 25.2 °F 14.9 °F 1015.5 in Calm     53 % 0.0 in 362.0 W/m2 CLR
08:58 25.6 °F 14.9 °F 1015.5 in Calm     52 % 0.0 in 378.0 W/m2 CLR
09:03 25.9 °F 15.3 °F 1015.5 in Calm     52 % 0.0 in 392.0 W/m2 CLR
09:08 26.3 °F 15.4 °F 1015.5 in Calm     51 % 0.0 in 399.0 W/m2 CLR
09:14 26.7 °F 15.4 °F 1015.5 in Calm     50 % 0.0 in 404.0 W/m2 CLR
09:19 26.7 °F 15.4 °F 1015.5 in Calm     50 % 0.0 in 411.0 W/m2 CLR
09:24 26.7 °F 15.4 °F 1015.5 in Calm     50 % 0.0 in 424.0 W/m2 CLR
09:29 26.8 °F 15.5 °F 1015.5 in Calm     50 % 0.0 in 439.0 W/m2 CLR
09:34 27.0 °F 15.7 °F 1015.5 in Calm     50 % 0.0 in 452.0 W/m2 CLR
09:39 27.3 °F 15.9 °F 1015.5 in Calm     50 % 0.0 in 466.0 W/m2 CLR
09:44 27.4 °F 16.1 °F 1015.5 in Calm     50 % 0.0 in 480.0 W/m2 CLR
09:49 27.5 °F 16.2 °F 1015.5 in Calm     50 % 0.0 in 492.0 W/m2 CLR
09:54 27.7 °F 16.1 °F 1015.5 in Calm     49 % 0.0 in 508.0 W/m2 CLR
09:59 27.9 °F 16.2 °F 1015.5 in Calm     49 % 0.0 in 524.0 W/m2 CLR
10:04 28.2 °F 15.8 °F 1015.5 in NNW 9.3 mph 9.3 mph 47 % 0.0 in 538.0 W/m2 CLR
10:09 28.4 °F 15.7 °F 1015.8 in NW 5.6 mph   46 % 0.0 in 552.0 W/m2 CLR
10:14 28.5 °F 15.4 °F 1015.8 in Calm     45 % 0.0 in 566.0 W/m2 CLR
10:19 28.6 °F 15.8 °F 1015.8 in NW 5.6 mph 5.6 mph 46 % 0.0 in 580.0 W/m2 CLR
10:24 28.7 °F 15.9 °F 1015.8 in Calm     46 % 0.0 in 592.0 W/m2 CLR
10:29 28.8 °F 15.7 °F 1015.8 in WNW 1.9 mph   45 % 0.0 in 605.0 W/m2 CLR
10:34 29.1 °F 15.9 °F 1015.8 in NW 9.3 mph 9.3 mph 45 % 0.0 in 621.0 W/m2 CLR
10:39 29.1 °F 16.3 °F 1015.8 in Calm     46 % 0.0 in 631.0 W/m2 CLR
10:44 29.2 °F 15.7 °F 1015.5 in NW 13.0 mph 13.0 mph 44 % 0.0 in 647.0 W/m2 CLR
10:49 29.2 °F 15.7 °F 1015.8 in NW 8.0 mph 8.0 mph 44 % 0.0 in 657.0 W/m2 CLR
10:54 29.3 °F 16.2 °F 1015.8 in NNE 11.1 mph 11.1 mph 45 % 0.0 in 673.0 W/m2 CLR
10:59 29.6 °F 16.0 °F 1015.8 in WNW 9.3 mph 9.3 mph 44 % 0.0 in 686.0 W/m2 CLR
11:04 29.8 °F 15.9 °F 1015.5 in NW 9.3 mph 9.3 mph 43 % 0.0 in 694.0 W/m2 CLR
11:09 29.9 °F 16.0 °F 1015.8 in NNW 13.0 mph 13.0 mph 43 % 0.0 in 705.0 W/m2 CLR
11:14 29.8 °F 16.6 °F 1015.8 in North 5.6 mph 5.6 mph 45 % 0.0 in 715.0 W/m2 CLR
11:19 30.1 °F 16.8 °F 1015.8 in NNE 3.7 mph 3.7 mph 45 % 0.0 in 728.0 W/m2 CLR
11:24 30.2 °F 16.6 °F 1015.8 in WNW 1.9 mph 1.9 mph 44 % 0.0 in 742.0 W/m2 CLR
11:29 30.3 °F 17.1 °F 1015.8 in Calm     45 % 0.0 in 747.0 W/m2 CLR
11:34 30.6 °F 16.2 °F 1015.8 in NNW 16.7 mph 16.7 mph 42 % 0.0 in 759.0 W/m2 CLR
11:39 30.6 °F 16.2 °F 1015.8 in NNE 9.3 mph 9.3 mph 42 % 0.0 in 772.0 W/m2 CLR
11:44 30.7 °F 16.7 °F 1015.8 in WNW 11.1 mph 11.1 mph 43 % 0.0 in 782.0 W/m2 CLR
11:49 30.6 °F 16.2 °F 1015.8 in Calm     42 % 0.0 in 788.0 W/m2 CLR
11:54 30.9 °F 16.5 °F 1015.8 in Calm     42 % 0.0 in 796.0 W/m2 CLR
11:59 31.1 °F 16.7 °F 1015.8 in West 7.4 mph 7.4 mph 42 % 0.0 in 807.0 W/m2 CLR
12:04 31.1 °F 17.1 °F 1015.8 in North 5.6 mph 5.6 mph 43 % 0.0 in 816.0 W/m2 CLR
12:09 31.3 °F 17.3 °F 1015.8 in Calm     43 % 0.0 in 824.0 W/m2 CLR
12:14 31.6 °F 16.8 °F 1015.8 in NNE 1.9 mph 1.9 mph 41 % 0.0 in 835.0 W/m2 CLR
12:16 31.7 °F 16.8 °F 1015.8 in Calm     41 % 0.0 in 837.0 W/m2 CLR
12:21 31.8 °F 16.9 °F 1015.8 in NNE 9.3 mph 9.3 mph 41 % 0.0 in 846.0 W/m2 CLR
12:26 31.7 °F 16.1 °F 1015.5 in North 11.1 mph 11.1 mph 39 % 0.0 in 856.0 W/m2 CLR
12:31 31.4 °F 16.6 °F 1015.5 in NNW 1.9 mph   41 % 0.0 in 860.0 W/m2 CLR
12:36 31.8 °F 16.9 °F 1015.5 in ENE 8.0 mph 8.0 mph 41 % 0.0 in 865.0 W/m2 CLR
12:37 31.9 °F 16.6 °F 1015.5 in East 7.4 mph 7.4 mph 40 % 0.0 in 865.0 W/m2 CLR
12:42 31.7 °F 16.4 °F 1015.5 in SE 5.6 mph 5.6 mph 40 % 0.0 in 872.0 W/m2 CLR
12:47 31.7 °F 16.4 °F 1015.5 in ENE 3.7 mph 3.7 mph 40 % 0.0 in 881.0 W/m2 CLR
12:52 32.0 °F 16.3 °F 1015.5 in East 7.4 mph 7.4 mph 39 % 0.0 in 888.0 W/m2 CLR
12:57 32.3 °F 16.6 °F 1015.5 in NE 9.3 mph 9.3 mph 39 % 0.0 in 893.0 W/m2 CLR
13:02 32.6 °F 16.4 °F 1015.5 in Calm   0.2 mph 38 % 0.0 in 895.0 W/m2 CLR
13:07 32.8 °F 16.2 °F 1015.5 in East 6.4 mph 6.4 mph 37 % 0.0 in 900.0 W/m2 CLR
13:12 32.9 °F 15.9 °F 1015.1 in NNE 8.0 mph 8.0 mph 36 % 0.0 in 905.0 W/m2 CLR
13:17 33.1 °F 15.6 °F 1015.1 in ENE 3.7 mph 3.7 mph 35 % 0.0 in 911.0 W/m2 CLR
13:22 33.3 °F 15.3 °F 1015.1 in Calm     34 % 0.0 in 911.0 W/m2 CLR
13:27 33.3 °F 15.3 °F 1015.1 in ESE 11.1 mph 11.1 mph 34 % 0.0 in 916.0 W/m2 CLR
13:32 33.4 °F 15.4 °F 1015.1 in ENE 1.9 mph 1.9 mph 34 % 0.0 in 918.0 W/m2 CLR
13:37 33.3 °F 14.9 °F 1015.1 in Calm   0.2 mph 33 % 0.0 in 921.0 W/m2 CLR
13:38 33.3 °F 15.3 °F 1015.1 in North 1.9 mph   34 % 0.0 in 921.0 W/m2 CLR
13:43 33.7 °F 15.2 °F 1014.8 in ESE 3.7 mph 3.7 mph 33 % 0.0 in 921.0 W/m2 CLR
13:48 33.3 °F 14.9 °F 1014.8 in South 5.6 mph   33 % 0.0 in 925.0 W/m2 CLR
13:53 33.4 °F 15.4 °F 1014.8 in ESE 9.7 mph 9.7 mph 34 % 0.0 in 926.0 W/m2 CLR
13:58 33.7 °F 15.6 °F 1014.4 in NE 11.3 mph 11.3 mph 34 % 0.0 in 925.0 W/m2 CLR
14:03 34.0 °F 15.0 °F 1014.4 in NNE 7.4 mph 7.4 mph 32 % 0.0 in 926.0 W/m2 CLR
14:08 34.2 °F 15.1 °F 1014.4 in Calm     32 % 0.0 in 928.0 W/m2 CLR
14:13 34.3 °F 15.2 °F 1014.1 in Calm     32 % 0.0 in 928.0 W/m2 CLR
14:18 34.6 °F 15.5 °F 1014.1 in Calm     32 % 0.0 in 928.0 W/m2 CLR
14:23 35.1 °F 15.9 °F 1014.1 in Calm     32 % 0.0 in 926.0 W/m2 CLR
14:29 35.6 °F 15.4 °F 1014.1 in NNE 5.6 mph   30 % 0.0 in 925.0 W/m2 CLR
14:34 35.4 °F 15.2 °F 1013.8 in NNE 7.4 mph 7.4 mph 30 % 0.0 in 925.0 W/m2 CLR
14:39 35.7 °F 15.4 °F 1013.8 in ENE 16.7 mph 16.7 mph 30 % 0.0 in 921.0 W/m2 CLR
14:49 35.2 °F 14.5 °F 1013.8 in NNW 7.4 mph 7.4 mph 29 % 0.0 in 914.0 W/m2 CLR
14:54 35.1 °F 14.9 °F 1013.8 in ESE 1.6 mph   30 % 0.0 in 905.0 W/m2 CLR
14:59 35.4 °F 15.2 °F 1013.4 in ENE 3.2 mph 5.0 mph 30 % 0.0 in 904.0 W/m2 CLR
15:04 35.3 °F 14.6 °F 1013.4 in NNW 11.1 mph 11.1 mph 29 % 0.0 in 900.0 W/m2 CLR
15:09 35.0 °F 14.8 °F 1013.4 in WNW 14.8 mph 14.8 mph 30 % 0.0 in 900.0 W/m2 CLR
15:14 34.9 °F 14.8 °F 1013.1 in East 4.8 mph 4.8 mph 30 % 0.0 in 891.0 W/m2 CLR
15:19 35.3 °F 15.1 °F 1013.1 in ENE 13.0 mph 13.0 mph 30 % 0.0 in 882.0 W/m2 CLR
15:24 35.4 °F 14.7 °F 1013.1 in NE 11.1 mph 11.1 mph 29 % 0.0 in 879.0 W/m2 CLR
15:29 35.6 °F 14.3 °F 1013.1 in West 1.6 mph 1.6 mph 28 % 0.0 in 870.0 W/m2 CLR
15:34 35.7 °F 14.9 °F 1013.1 in NW 11.3 mph 11.3 mph 29 % 0.0 in 868.0 W/m2 CLR
15:39 35.4 °F 14.7 °F 1013.1 in Calm     29 % 0.0 in 870.0 W/m2 CLR
15:44 35.7 °F 14.9 °F 1012.8 in NE 11.3 mph 11.3 mph 29 % 0.0 in 861.0 W/m2 CLR
15:49 35.9 °F 14.0 °F 1012.8 in North 16.7 mph 16.7 mph 27 % 0.0 in 846.0 W/m2 CLR
15:54 35.9 °F 13.9 °F 1012.8 in East 18.5 mph 18.5 mph 27 % 0.0 in 846.0 W/m2 CLR
15:59 36.0 °F 13.5 °F 1012.8 in SE 18.5 mph 18.5 mph 26 % 0.0 in 837.0 W/m2 CLR
16:04 35.6 °F 13.2 °F 1012.8 in SE 14.8 mph 14.8 mph 26 % 0.0 in 838.0 W/m2 CLR
16:09 35.6 °F 13.2 °F 1012.8 in SSE 9.3 mph 9.3 mph 26 % 0.0 in 821.0 W/m2 CLR
16:14 35.6 °F 13.1 °F 1012.8 in Calm     26 % 0.0 in 803.0 W/m2 CLR
16:19 35.8 °F 13.3 °F 1012.8 in NNE 9.3 mph 9.3 mph 26 % 0.0 in 816.0 W/m2 CLR
16:24 36.2 °F 13.0 °F 1012.8 in NNW 16.7 mph 16.7 mph 25 % 0.0 in 809.0 W/m2 CLR
16:29 35.8 °F 12.7 °F 1012.8 in North 4.8 mph 4.8 mph 25 % 0.0 in 134.0 W/m2 CLR
16:34 35.6 °F 13.2 °F 1012.8 in North 5.6 mph 5.6 mph 26 % 0.0 in 788.0 W/m2 CLR
16:39 35.9 °F 13.4 °F 1012.8 in NW 1.9 mph   26 % 0.0 in 775.0 W/m2 CLR
16:44 36.4 °F 13.2 °F 1012.8 in NNE 3.7 mph 3.7 mph 25 % 0.0 in 765.0 W/m2 CLR
16:49 36.6 °F 13.9 °F 1012.8 in ESE 7.4 mph 7.4 mph 26 % 0.0 in 752.0 W/m2 CLR
16:54 36.2 °F 13.6 °F 1012.4 in SE 9.7 mph 9.7 mph 26 % 0.0 in 751.0 W/m2 CLR
16:55 36.2 °F 13.6 °F 1012.4 in SE 9.3 mph 9.3 mph 26 % 0.0 in 745.0 W/m2 CLR
17:00 36.1 °F 14.2 °F 1012.4 in ESE 11.3 mph 11.3 mph 27 % 0.0 in 731.0 W/m2 CLR
17:05 36.0 °F 12.3 °F 1012.4 in ESE 13.0 mph 13.0 mph 24 % 0.0 in 737.0 W/m2 CLR
17:10 36.1 °F 12.9 °F 1012.4 in ESE 13.0 mph 13.0 mph 25 % 0.0 in 735.0 W/m2 CLR
17:11 36.1 °F 12.3 °F 1012.4 in SSW 9.3 mph 9.3 mph 24 % 0.0 in 738.0 W/m2 CLR
17:16 36.5 °F 12.7 °F 1012.4 in Calm     24 % 0.0 in 717.0 W/m2 CLR
17:21 36.4 °F 15.5 °F 1012.4 in ESE 13.0 mph 13.0 mph 29 % 0.0 in 717.0 W/m2 CLR
17:26 35.9 °F 15.6 °F 1012.4 in ESE 14.8 mph 14.8 mph 30 % 0.0 in 664.0 W/m2 CLR
17:31 35.7 °F 15.4 °F 1012.4 in ESE 25.9 mph 25.9 mph 30 % 0.0 in 654.0 W/m2 CLR
17:36 35.4 °F 15.2 °F 1012.4 in ENE 18.5 mph 18.5 mph 30 % 0.0 in 628.0 W/m2 CLR
17:41 35.4 °F 15.7 °F 1012.8 in SE 14.5 mph 15.0 mph 31 % 0.0 in 621.0 W/m2 CLR
17:46 35.0 °F 15.3 °F 1012.4 in ESE 20.4 mph 20.4 mph 31 % 0.0 in 98.0 W/m2 CLR
17:51 34.7 °F 15.1 °F 1012.4 in ESE 24.1 mph 24.1 mph 31 % 0.0 in 577.0 W/m2 CLR
17:56 34.9 °F 15.3 °F 1012.4 in East 8.0 mph 8.0 mph 31 % 0.0 in 561.0 W/m2 CLR
18:01 35.2 °F 15.6 °F 1012.4 in East 16.1 mph 16.1 mph 31 % 0.0 in 555.0 W/m2 CLR
18:06 35.2 °F 15.1 °F 1012.4 in ESE 22.2 mph 22.2 mph 30 % 0.0 in 547.0 W/m2 CLR
18:11 35.3 °F 15.1 °F 1012.4 in SE 18.5 mph 18.5 mph 30 % 0.0 in 522.0 W/m2 CLR
18:16 35.3 °F 15.1 °F 1012.4 in SE 20.4 mph 20.4 mph 30 % 0.0 in 510.0 W/m2 CLR
18:21 35.3 °F 15.1 °F 1012.4 in East 27.8 mph 27.8 mph 30 % 0.0 in 501.0 W/m2 CLR
18:26 35.2 °F 15.0 °F 1012.4 in East 18.5 mph 18.5 mph 30 % 0.0 in 485.0 W/m2 CLR
18:31 35.2 °F 15.0 °F 1012.8 in ESE 18.5 mph 18.5 mph 30 % 0.0 in 473.0 W/m2 CLR
18:36 35.2 °F 15.0 °F 1012.8 in SE 18.5 mph 18.5 mph 30 % 0.0 in 462.0 W/m2 CLR
18:41 35.2 °F 15.0 °F 1012.8 in SE 18.5 mph 18.5 mph 30 % 0.0 in 431.0 W/m2 CLR
18:46 35.1 °F 14.9 °F 1012.8 in SSE 14.8 mph 14.8 mph 30 % 0.0 in 417.0 W/m2 CLR
18:51 35.2 °F 15.0 °F 1012.8 in South 11.1 mph 11.1 mph 30 % 0.0 in 408.0 W/m2 CLR
18:56 35.1 °F 14.3 °F 1013.1 in SSW 16.7 mph 16.7 mph 29 % 0.0 in 404.0 W/m2 CLR
19:01 34.9 °F 14.3 °F 1013.1 in SSE 17.7 mph 17.7 mph 29 % 0.0 in 373.0 W/m2 CLR
19:02 34.9 °F 14.7 °F 1013.1 in South 17.7 mph 17.7 mph 30 % 0.0 in 373.0 W/m2 CLR
19:07 34.6 °F 14.0 °F 1012.8 in SSW 18.5 mph 18.5 mph 29 % 0.0 in 353.0 W/m2 CLR
19:12 34.5 °F 13.9 °F 1012.8 in SSW 20.4 mph 20.4 mph 29 % 0.0 in 336.0 W/m2 CLR
19:17 34.6 °F 13.9 °F 1012.8 in SSW 16.7 mph 16.7 mph 29 % 0.0 in 320.0 W/m2 CLR
19:22 34.4 °F 13.8 °F 1012.8 in SSE 16.7 mph 16.7 mph 29 % 0.0 in 308.0 W/m2 CLR
19:27 34.4 °F 13.8 °F 1012.8 in South 22.2 mph 22.2 mph 29 % 0.0 in 294.0 W/m2 CLR
19:32 34.2 °F 14.2 °F 1012.8 in South 16.7 mph 16.7 mph 30 % 0.0 in 274.0 W/m2 CLR
19:37 34.2 °F 13.7 °F 1012.8 in South 18.5 mph 18.5 mph 29 % 0.0 in 260.0 W/m2 CLR
19:42 34.2 °F 14.1 °F 1012.8 in SSW 24.1 mph 24.1 mph 30 % 0.0 in 246.0 W/m2 CLR
19:47 34.1 °F 14.6 °F 1012.8 in South 11.3 mph 11.3 mph 31 % 0.0 in 230.0 W/m2 CLR
19:52 34.0 °F 14.5 °F 1012.8 in SSW 18.5 mph 18.5 mph 31 % 0.0 in 213.0 W/m2 CLR
19:57 34.0 °F 14.5 °F 1013.1 in South 11.1 mph 11.1 mph 31 % 0.0 in 197.0 W/m2 CLR
20:02 33.9 °F 14.4 °F 1013.1 in South 13.0 mph 13.0 mph 31 % 0.0 in 181.0 W/m2 CLR
20:07 33.8 °F 15.3 °F 1013.1 in South 13.0 mph 13.0 mph 33 % 0.0 in 163.0 W/m2 CLR
20:12 33.7 °F 14.7 °F 1013.1 in South 9.3 mph 9.3 mph 32 % 0.0 in 144.0 W/m2 CLR
20:17 33.6 °F 14.7 °F 1013.1 in South 9.3 mph 9.3 mph 32 % 0.0 in 128.0 W/m2 CLR
20:22 33.6 °F 15.1 °F 1013.1 in SE 9.3 mph 9.3 mph 33 % 0.0 in 114.0 W/m2 CLR
20:27 33.4 °F 15.4 °F 1013.1 in Calm     34 % 0.0 in 100.0 W/m2 CLR
20:32 33.3 °F 15.3 °F 1013.1 in South 14.8 mph 14.8 mph 34 % 0.0 in 88.0 W/m2 CLR
20:37 33.2 °F 14.8 °F 1013.1 in Calm     33 % 0.0 in 74.0 W/m2 FEW
20:42 33.2 °F 14.3 °F 1013.1 in SW 1.9 mph   32 % 0.0 in 63.0 W/m2 SCT
20:47 33.0 °F 13.6 °F 1013.1 in SSW 13.0 mph 13.0 mph 31 % 0.0 in 33.0 W/m2 BKN
20:52 32.9 °F 13.5 °F 1013.1 in South 13.0 mph 13.0 mph 31 % 0.0 in 40.0 W/m2 BKN
20:57 32.8 °F 13.5 °F 1013.1 in Calm     31 % 0.0 in 32.0 W/m2 BKN
21:02 32.7 °F 13.4 °F 1013.1 in Calm     31 % 0.0 in 23.0 W/m2 BKN
21:07 32.6 °F 13.8 °F 1013.1 in Calm     32 % 0.0 in 18.0 W/m2 BKN
21:12 32.5 °F 14.2 °F 1013.1 in Calm     33 % 0.0 in 14.0 W/m2 BKN
21:17 32.3 °F 14.0 °F 1013.1 in Calm     33 % 0.0 in 12.0 W/m2 BKN
21:22 32.1 °F 13.8 °F 1013.1 in Calm     33 % 0.0 in 11.0 W/m2 BKN
21:27 31.9 °F 14.1 °F 1013.4 in Calm     34 % 0.0 in 9.0 W/m2 BKN
21:32 31.8 °F 14.0 °F 1013.4 in Calm     34 % 0.0 in 5.0 W/m2 OVC
21:37 31.6 °F 14.2 °F 1013.4 in Calm     35 % 0.0 in 0.0 W/m2 OVC
21:42 31.4 °F 14.1 °F 1013.4 in Calm     35 % 0.0 in 0.0 W/m2 OVC
21:47 31.1 °F 15.1 °F 1013.4 in Calm     38 % 0.0 in 0.0 W/m2 CLR
21:52 30.8 °F 15.6 °F 1013.4 in ESE 9.3 mph 9.3 mph 40 % 0.0 in 0.0 W/m2 CLR
21:57 30.4 °F 16.1 °F 1013.8 in ESE 11.3 mph 11.3 mph 42 % 0.0 in 0.0 W/m2 CLR
22:02 30.1 °F 15.8 °F 1013.8 in Calm     42 % 0.0 in 0.0 W/m2 CLR
22:07 29.8 °F 15.9 °F 1013.8 in Calm     43 % 0.0 in 0.0 W/m2 CLR
22:12 29.6 °F 16.0 °F 1013.8 in ESE 5.6 mph   44 % 0.0 in 0.0 W/m2 CLR
22:17 29.2 °F 16.1 °F 1014.1 in SE 9.3 mph 9.3 mph 45 % 0.0 in 0.0 W/m2 CLR
22:22 28.9 °F 16.2 °F 1014.1 in SE 7.4 mph 7.4 mph 46 % 0.0 in 0.0 W/m2 CLR
22:27 28.6 °F 15.8 °F 1014.1 in SE 14.8 mph 14.8 mph 46 % 0.0 in 0.0 W/m2 CLR
22:32 28.5 °F 15.8 °F 1014.1 in Calm     46 % 0.0 in 0.0 W/m2 CLR
22:37 28.4 °F 15.7 °F 1014.1 in Calm     46 % 0.0 in 0.0 W/m2 CLR
22:38 28.4 °F 15.7 °F 1014.1 in Calm     46 % 0.0 in 0.0 W/m2 CLR
22:43 28.5 °F 15.4 °F 1014.1 in Calm     45 % 0.0 in 0.0 W/m2 CLR
22:48 28.5 °F 15.4 °F 1014.4 in Calm     45 % 0.0 in 0.0 W/m2 CLR
22:53 28.4 °F 15.3 °F 1014.4 in SE 8.0 mph 8.0 mph 45 % 0.0 in 0.0 W/m2 CLR
22:58 28.4 °F 15.3 °F 1014.4 in Calm     45 % 0.0 in 0.0 W/m2 CLR
23:03 28.1 °F 15.4 °F 1014.4 in Calm     46 % 0.0 in 0.0 W/m2 CLR
23:08 27.7 °F 15.1 °F 1014.4 in Calm     46 % 0.0 in 0.0 W/m2 CLR
23:13 27.6 °F 14.9 °F 1014.4 in Calm     46 % 0.0 in 0.0 W/m2 CLR
23:18 27.6 °F 14.9 °F 1014.8 in Calm     46 % 0.0 in 0.0 W/m2 CLR
23:23 27.5 °F 14.8 °F 1014.8 in Calm     46 % 0.0 in 0.0 W/m2 CLR
23:28 27.3 °F 14.7 °F 1014.4 in Calm     46 % 0.0 in 0.0 W/m2 CLR
23:33 27.1 °F 14.5 °F 1014.4 in Calm     46 % 0.0 in 0.0 W/m2 CLR
23:38 26.9 °F 14.3 °F 1014.4 in Calm     46 % 0.0 in 0.0 W/m2 CLR
23:43 26.8 °F 14.2 °F 1014.4 in Calm     46 % 0.0 in 0.0 W/m2 CLR
23:48 26.7 °F 14.2 °F 1014.4 in Calm     46 % 0.0 in 0.0 W/m2 CLR
23:53 26.7 °F 14.2 °F 1014.8 in Calm     46 % 0.0 in 0.0 W/m2 CLR
23:58 26.7 °F 14.7 °F 1014.8 in Calm     48 % 0.0 in 0.0 W/m2 CLR
Lo Temps de Massalio
Compliments of Weather Underground - 1.25 mb